Weather History for Lander, WY

Change the Weather History Date:

Friday, June 28, 2013

  Actual Average Record
Temperature  
Mean Temperature 79 °F 67 °F  
Max Temperature 94 °F 83 °F 97 °F (2002)
Min Temperature 63 °F 52 °F 34 °F (1945)
Degree Days  
Heating Degree Days 0 2  
Month to date heating degree days 54 123  
Since 1 June heating degree days 54 123  
Since 1 July heating degree days 7428 7745  
Cooling Degree Days 14 4  
Month to date cooling degree days 94 57  
Year to date cooling degree days 103 62  
Since 1 June cooling degree days 94 57  
Growing Degree Days 28 (Base 50)    
Moisture  
Dew Point 46 °F    
Average Humidity 35    
Maximum Humidity 52    
Minimum Humidity 18    
Precipitation  
Precipitation 0.00 in 0.03 in 0.87 in (1895)
Month to date precipitation 0.05 1.23  
Year to date precipitation 7.57 7.45  
Snow  
Snow 0.00 in 0.00 in - ()
Month to date snowfall 0.0 0.1  
Since 1 June snowfall 0.0 0.1  
Since 1 July snowfall 111.1 91.4  
Snow Depth 0.00 in    
Sea Level Pressure  
Sea Level Pressure 30.06 in    
Wind  
Wind Speed 7 mph (NNW)    
Max Wind Speed 14 mph    
Max Gust Speed 20 mph    
Visibility 10 miles    
Events      
T = Trace of Precipitation, MM = Missing Value Source: NWS Daily Summary

Daily Weather History Graph

Daily Weather History Graph

Search for Another Location

Airport:

Trip Planner

Search our weather history database for the weather conditions in past years. The results will help you decide how hot, cold, wet, or windy it might be!

Date:

Astronomy

Jun. 28, 2013 Rise Set
Actual Time 5:38 AM MDT 8:57 PM MDT
Civil Twilight 5:03 AM MDT 9:32 PM MDT
Nautical Twilight 4:18 AM MDT 10:17 PM MDT
Astronomical Twilight 3:22 AM MDT 11:13 PM MDT
Moon No Moon Rise 11:59 AM MDT (6/28)
Length of Visible Light 16h 28m
Length of Day
15h 18m
Waning Gibbous, 65% of the Moon is Illuminated
Jun 28
Waning Gibbous
Jun 29
Last Quarter
Jul 8
New
Jul 15
First Quarter
Jul 22
Full

Hourly Weather History & Observations

Time (MDT) Temp. Dew Point Humidity Pressure Visibility Wind Dir Wind Speed Gust Speed Precip Events Conditions
12:53 AM 72.0 °F 39.9 °F 31% 30.08 in 10.0 mi WNW 8.1 mph - N/A   Clear
1:53 AM 68.0 °F 42.1 °F 39% 30.09 in 10.0 mi West 9.2 mph - N/A   Clear
2:53 AM 66.9 °F 43.0 °F 42% 30.09 in 10.0 mi West 9.2 mph - N/A   Clear
3:53 AM 64.9 °F 45.0 °F 48% 30.10 in 10.0 mi WNW 10.4 mph - N/A   Clear
4:53 AM 64.0 °F 43.0 °F 46% 30.10 in 10.0 mi West 9.2 mph - N/A   Clear
5:53 AM 63.0 °F 45.0 °F 52% 30.12 in 10.0 mi WNW 4.6 mph - N/A   Clear
6:53 AM 66.0 °F 46.9 °F 50% 30.13 in 10.0 mi Calm Calm - N/A   Clear
7:53 AM 70.0 °F 50.0 °F 49% 30.12 in 10.0 mi NNW 6.9 mph - N/A   Clear
8:53 AM 73.0 °F 51.1 °F 46% 30.13 in 10.0 mi North 4.6 mph - N/A   Clear
9:53 AM 77.0 °F 51.1 °F 40% 30.13 in 10.0 mi Variable 3.5 mph - N/A   Clear
10:53 AM 80.1 °F 51.1 °F 36% 30.10 in 10.0 mi North 6.9 mph - N/A   Clear
11:53 AM 84.0 °F 48.9 °F 29% 30.07 in 10.0 mi North 5.8 mph - N/A   Clear
12:53 PM 84.9 °F 48.0 °F 28% 30.06 in 10.0 mi NW 8.1 mph - N/A   Clear
1:53 PM 89.1 °F 48.9 °F 25% 30.04 in 10.0 mi NNW 8.1 mph - N/A   Clear
2:53 PM 91.0 °F 46.9 °F 22% 30.02 in 10.0 mi NNE 8.1 mph - N/A   Clear
3:53 PM 93.0 °F 44.1 °F 18% 30.00 in 10.0 mi NE 10.4 mph 18.4 mph N/A   Clear
4:53 PM 93.9 °F 44.1 °F 18% 29.98 in 10.0 mi NE 6.9 mph 19.6 mph N/A   Clear
5:53 PM 91.9 °F 43.0 °F 18% 29.98 in 10.0 mi NE 6.9 mph 16.1 mph N/A   Clear
6:53 PM 90.0 °F 46.0 °F 22% 29.97 in 10.0 mi NNE 11.5 mph 16.1 mph N/A   Clear
7:53 PM 86.0 °F 46.0 °F 25% 29.99 in 10.0 mi North 15.0 mph - N/A   Clear
8:53 PM 80.1 °F 46.0 °F 30% 30.01 in 10.0 mi WNW 6.9 mph - N/A   Clear
9:53 PM 77.0 °F 45.0 °F 32% 30.04 in 10.0 mi West 8.1 mph - N/A   Clear
10:53 PM 75.0 °F 45.0 °F 34% 30.06 in 10.0 mi Calm Calm - N/A   Clear
11:53 PM 71.1 °F 45.0 °F 39% 30.07 in 10.0 mi West 8.1 mph - N/A   Clear